Overview Statistics Trail Chart Weather Telemetry Raw packets
 

This is the latest recevied weather packets stored in our database for station/object SV9TNF-57. If no packets are shown the sender has not sent any weather packets the latest 10 day(s).

<< 48 49 50 51 52 53 54 >>
Time Temp. Humidity Pressure Rain* Wind** Luminosity Snow
1788335919 31.67° C 36% 994.9 hPa 0 mm 9.83 m/s, 225° - -
1788335619 31.67° C 36% 994.9 hPa 0 mm 3.58 m/s, 174° - -
1788335319 31.11° C 37% 994.8 hPa 0 mm 2.68 m/s, 317° - -
1788335019 31.11° C 36% 994.8 hPa 0 mm 5.36 m/s, 272° - -
1788334718 31.11° C 36% 994.8 hPa 0 mm 11.18 m/s, 336° - -
1788334418 31.11° C 36% 994.7 hPa 0 mm 12.96 m/s, 2° - -
1788334118 31.11° C 36% 994.7 hPa 0 mm 9.83 m/s, 285° - -
1788333818 31.11° C 36% 994.6 hPa 0 mm 12.52 m/s, 342° - -
1788333518 31.11° C 37% 994.8 hPa 0 mm 8.94 m/s, 222° - -
1788333218 31.11° C 35% 994.6 hPa 0 mm 14.31 m/s, 283° - -
1788332918 31.11° C 36% 994.6 hPa 0 mm 12.52 m/s, 285° - -
1788332618 31.11° C 37% 994.5 hPa 0 mm 15.65 m/s, 290° - -
1788332317 30.56° C 37% 994.6 hPa 0 mm 9.39 m/s, 262° - -
1788332017 30.56° C 37% 994.5 hPa 0 mm 17.43 m/s, 273° - -
1788331717 30.56° C 37% 994.7 hPa 0 mm 8.49 m/s, 334° - -
1788331417 30.56° C 37% 994.5 hPa 0 mm 7.15 m/s, 269° - -
1788331117 30.56° C 37% 994.7 hPa 0 mm 18.78 m/s, 228° - -
1788330817 30.56° C 37% 994.9 hPa 0 mm 6.26 m/s, 343° - -
1788330517 30.56° C 38% 994.8 hPa 0 mm 11.18 m/s, 330° - -
1788330217 30.56° C 38% 994.6 hPa 0 mm 12.07 m/s, 337° - -
1788329917 30° C 39% 994.9 hPa 0 mm 7.15 m/s, 165° - -
1788329617 30° C 38% 995 hPa 0 mm 4.47 m/s, 290° - -
1788329317 30° C 38% 995 hPa 0 mm 1.79 m/s, 303° - -
1788329017 30° C 38% 994.9 hPa 0 mm 8.05 m/s, 313° - -
1788328717 30° C 39% 994.9 hPa 0 mm 6.26 m/s, 50° - -

* Rain latest hour (hover to see other rain measurements)
** Current wind speed in m/s (hover to see current wind gust speed)